#timestamp,LO_Frequency,Hit 
1500544815.5,286046967.6,N
1500544835.4,286046964.5,N
1500544855.2,286046966.7,N
1500544875.0,286046965.2,N
1500544875.9,286046965.2,N
1500544895.8,286046967.6,N
1500544915.6,286046966.9,N
1500544935.5,286046967.0,N
1500544955.3,286046967.1,N
1500544975.1,286046965.0,N
1500544995.9,286046965.5,N
1500545015.7,286046965.3,N
1500545035.5,286046968.7,N
1500545055.4,286046970.8,N
1500545075.2,286046969.1,N
1500545095.1,286046966.6,N
1500545096.0,286046966.6,N
1500545115.8,286046966.6,N
1500545135.6,286046966.4,N
1500545155.5,286046967.0,N
1500545175.3,286046966.5,N
1500545195.1,286046967.3,N
1500545215.9,286046966.0,N
1500545235.7,286046965.1,N
1500545255.6,286046964.3,N
1500545275.4,286046960.5,N
1500545295.2,286046960.5,N
1500545315.1,286046962.4,N
1500545316.0,286046962.4,N
1500545335.8,286046959.4,N
1500545355.6,286046957.9,N
1500545375.5,286046959.1,N
1500545395.3,286046959.6,N
1500545415.2,286046958.6,N
1500545435.9,286046958.2,N
1500545455.7,286046960.8,N
1500545475.6,286046958.9,N
1500545495.4,286046958.8,N
1500545515.2,286046960.8,N
1500545535.1,286046962.5,N
1500545536.0,286046962.5,N
1500545555.8,286046962.8,N
1500545575.7,286046961.6,N
1500545595.5,286046963.9,N
1500545615.3,286046964.3,N
1500545635.2,286046963.6,N
1500545655.0,286046967.5,N
1500545655.9,286046967.5,N
1500545675.7,286046965.5,N
1500545695.6,286046964.1,N
1500545715.4,286046961.8,N
1500545735.3,286046960.3,N
1500545755.1,286046958.4,N
1500545756.0,286046958.4,N
1500545775.8,286046957.9,N
1500545795.7,286046955.9,N
1500545815.5,286046953.8,N
1500545835.3,286046956.1,N
1500545855.2,286046954.0,N
1500545875.0,286046952.2,N
1500545875.9,286046952.2,N
1500545895.8,286046950.2,N
1500545915.6,286046950.1,N
1500545935.4,286046950.8,N
1500545955.3,286046954.6,N
1500545975.1,286046953.7,N
1500545995.9,286046956.4,N
1500546015.7,286046955.5,N
1500546035.5,286046954.9,N
1500546055.4,286046955.1,N
1500546075.2,286046956.2,N
1500546095.0,286046953.3,N
1500546095.9,286046953.3,N
1500546115.8,286046953.4,N
1500546135.6,286046956.1,N
1500546155.5,286046954.0,N
1500546175.3,286046954.5,N
1500546195.1,286046954.3,N
1500546215.9,286046956.4,N
1500546235.7,286046953.8,N
1500546255.5,286046953.9,N
1500546275.4,286046954.2,N
1500546295.2,286046953.9,N
1500546315.1,286046955.8,N
1500546316.0,286046955.8,N
1500546335.8,286046953.3,N
1500546355.6,286046955.5,N
1500546375.5,286046958.0,N
1500546395.3,286046956.1,N
1500546415.1,286046956.2,N
1500546435.9,286046955.9,N
1500546455.7,286046955.2,N
1500546475.6,286046957.7,N
1500546495.4,286046957.5,N
1500546515.2,286046955.7,N
1500546535.1,286046953.5,N
1500546536.0,286046953.5,N
1500546555.8,286046952.0,N
1500546575.6,286046956.3,N
1500546595.5,286046954.5,N
1500546615.3,286046953.4,N
1500546635.2,286046956.2,N
1500546655.9,286046955.2,N
1500546675.7,286046955.4,N
1500546695.6,286046957.6,N
1500546715.4,286046955.3,N
1500546735.2,286046957.6,N
1500546755.1,286046956.7,N
1500546756.0,286046956.7,N
1500546775.8,286046957.3,N
1500546795.7,286046958.7,N
1500546815.5,286046955.2,N
1500546835.3,286046955.0,N
1500546855.2,286046957.6,N
1500546875.0,286046956.8,N
1500546875.9,286046956.8,N
1500546895.7,286046957.4,N
1500546915.6,286046956.8,N
1500546935.4,286046955.0,N
1500546955.3,286046957.0,N
1500546975.1,286046958.9,N
1500546976.0,286046958.9,N
1500546995.8,286046957.7,N
1500547015.7,286046955.2,N
1500547035.5,286046951.9,N
1500547055.3,286046954.5,N
1500547075.2,286046952.3,N
1500547095.0,286046950.1,N
1500547095.9,286046950.1,N
1500547115.8,286046952.7,N
1500547135.6,286046951.0,N
1500547155.4,286046950.0,N
1500547175.3,286046949.3,N
1500547195.1,286046948.4,N
1500547215.9,286046946.5,N
1500547235.7,286046944.1,N
1500547255.5,286046944.4,N
1500547275.4,286046944.2,N
1500547295.2,286046944.4,N
1500547315.0,286046946.5,N
1500547315.9,286046946.5,N
1500547335.8,286046943.8,N
1500547355.6,286046943.4,N
1500547375.5,286046943.2,N
1500547395.3,286046942.9,N
1500547415.1,286046945.2,N
1500547435.9,286046944.6,N
1500547455.7,286046945.8,N
1500547475.5,286046948.2,N
1500547495.4,286046947.3,N
1500547515.2,286046947.0,N
1500547535.1,286046946.0,N
1500547536.0,286046946.0,N
1500547555.8,286046944.6,N
1500547575.6,286046946.7,N
1500547595.5,286046948.3,N
1500547615.3,286046947.9,N
1500547635.1,286046945.4,N
1500547655.9,286046947.7,N
1500547675.7,286046945.4,N
1500547695.6,286046947.5,N
1500547715.4,286046945.3,N
1500547735.2,286046947.3,N
1500547755.1,286046949.3,N
1500547756.0,286046949.3,N
1500547775.8,286046949.3,N
1500547795.6,286046949.0,N
1500547815.5,286046949.7,N
1500547835.3,286046949.0,N
1500547855.2,286046951.4,N
1500547875.9,286046951.6,N
1500547895.7,286046951.1,N
1500547915.6,286046951.2,N
1500547935.4,286046948.7,N
1500547955.2,286046949.0,N
1500547975.1,286046951.2,N
1500547976.0,286046951.2,N
1500547995.8,286046952.4,N
1500548015.7,286046953.1,N
1500548035.5,286046950.6,N
1500548055.3,286046952.8,N
1500548075.2,286046952.9,N
1500548095.0,286046952.4,N
1500548095.9,286046952.4,N
1500548115.7,286046952.7,N
1500548135.6,286046951.8,N
1500548155.4,286046954.3,N
1500548175.3,286046951.8,N
1500548195.1,286046954.5,N
1500548196.0,286046954.5,N
1500548215.8,286046955.9,N
1500548235.7,286046954.3,N
1500548255.5,286046953.8,N
1500548275.4,286046953.4,N
1500548295.2,286046953.6,N
1500548315.0,286046956.0,N
1500548315.9,286046956.0,N
1500548335.8,286046953.2,N
1500548355.6,286046951.1,N
1500548375.4,286046950.5,N
1500548395.3,286046951.9,N
